Regional Weather Roundup
Issued by NWS

Home | Current Version | Previous Version | Graphics & Text | Print | Product List | Glossary On
Versions: 1 2 3 4 5 6 7 8 9 10 11 12 13 14 15 16 17 18 19 20 21 22 23 24 25 26 27 28 29 30 31 32 33 34 35 36 37 38 39 40 41 42 43 44 45 46 47 48 49 50
000
ASUS43 KDMX 060907
RWRIA

WEATHER ROUNDUP FOR IOWA
NATIONAL WEATHER SERVICE DES MOINES IA
400 AM CDT WED MAY 06 2015

NOTE: "FAIR" INDICATES FEW OR NO CLOUDS BELOW 12,000 FEET WITH NO
SIGNIFICANT WEATHER AND/OR OBSTRUCTIONS TO VISIBILITY.

* - THESE STATIONS ARE NOT NWS STATIONS...THUS NOT UNDER NWS
QUALITY CONTROL.  THEY ALSO DO NOT REPORT WEATHER SUCH
AS PRECIPITATION OR FOG.

IAZ001>003-012>014-020>022-031>034-043>046-061000-
   NORTHWEST IOWA

CITY           SKY/WX    TMP DP  RH WIND       PRES   REMARKS
CARROLL *      MOCLDY    63  61  94 SE8       29.97F
CHEROKEE *     CLOUDY    64  61  88 SE12G18   29.97R
DENISON *      MOCLDY    63  63 100 S10       29.94F
LE MARS *      CLOUDY    63  59  88 SE12      29.94S
ORANGE CITY *  LGT RAIN  61  59  94 SE8       29.95S
SHELDON *      CLOUDY    63  63 100 SE14      29.95S FOG
SIOUX CITY     CLOUDY    64  57  78 SE10      29.91F
SPENCER        CLOUDY    62 N/A N/A SE12      29.98F FOG
STORM LAKE *   CLOUDY    63  63 100 SE15      29.99S FOG
$$

IAZ055>058-069>071-079>083-090>094-061000-
   SOUTHWEST IOWA

CITY           SKY/WX    TMP DP  RH WIND       PRES   REMARKS
ATLANTIC *     CLOUDY    63  61  94 CALM      29.96F
AUDUBON *      MOCLDY    63  57  82 CALM      29.98F
CLARINDA *     CLEAR     63  63 100 E5        29.96F
COUNCIL BLFS * CLOUDY    61  61 100 SE10      29.93F
CRESTON *      CLEAR     61  61 100 SE8       29.98F
HARLAN  *      CLOUDY    63  63 100 SE5       29.99F
LAMONI         MOCLDY    65  58  78 SE7       29.99F
RED OAK *      MOCLDY    61  61 100 E6        29.94F
SHENANDOAH *   MOCLDY    63  61  94 E8        29.93F
$$

IAZ047>049-059>061-072>074-084-061000-
   CENTRAL IOWA

CITY           SKY/WX    TMP DP  RH WIND       PRES   REMARKS
AMES           MOCLDY    63  61  93 SE5       30.02F FOG
ANKENY *       FOG       61  61 100 CALM      30.01S VSB 0
CHARITON *     PTCLDY    63  59  88 SE7       30.01F
DES MOINES     MOCLDY    65  61  87 SE6       30.00F FOG
GRINNELL*      CLOUDY    63  63 100 SE10      30.05F FOG
KNOXVILLE *    PTCLDY    64  61  88 E7        30.01F FOG
MARSHALLTOWN   CLOUDY    63  61  93 SE14      30.04S FOG
PELLA *          N/A     63  63 100 E6        30.04F FOG
PERRY *        MOCLDY    63  61  94 E9        29.99F FOG
$$

IAZ004>006-015-016-023>025-035-036-061000-
   NORTH CENTRAL IOWA

CITY           SKY/WX    TMP DP  RH WIND       PRES   REMARKS
ALGONA *       FOG       59  59 100 SE16      30.01F VSB 1/4
CLARION *      FOG       59  59 100 SE17      30.04S VSB 1/4
ESTHERVILLE    FOG       57  57 100 SE15      30.00F VSB 1/2
FORT DODGE *   CLOUDY    63  59  88 SE10G17   30.03R
MASON CITY     FOG       56  56 100 SE13      30.07F VSB 1/4
FOREST CITY *  FOG       54  54 100 SE9       30.05S VSB 1/2
IOWA FALLS *   FOG       59  59 100 E12       30.06S VSB 1/4
$$

IAZ007>011-017>019-026>030-037>042-050>054-066-061000-
   NORTHEAST IOWA

CITY           SKY/WX    TMP DP  RH WIND       PRES   REMARKS
CEDAR RAPIDS   FOG       57  57 100 E9        30.08F VSB 3/4
CHARLES CITY * FOG       55  55 100 SE12      30.09S VSB 0
CLINTON *      CLOUDY    54  52  94 E10       30.15S VSB 3/4
DECORAH *      FOG       54  54 100 SE9       30.11F VSB 1/2
DUBUQUE        FOG       52  52 100 E8        30.13S VSB 1/4
MONTICELLO *   CLOUDY    55  55 100 SE10      30.11S FOG
OELWEIN *      FOG       54  54 100 SE14      30.10F VSB 0
WATERLOO       FOG       57  56  96 SE10      30.07F VSB 1/2
$$

IAZ064-065-067-068-078-061000-
   EAST CENTRAL IOWA

CITY           SKY/WX    TMP DP  RH WIND       PRES   REMARKS
DAVENPORT      CLOUDY    55  53  93 E12       30.12F FOG
IOWA CITY      CLOUDY    58  57  97 E9        30.10F FOG
MT. PLEASANT *   N/A     63  63 100 E8        30.07S FOG
MUSCATINE *    PTCLDY    59  57  94 E5        30.10S FOG
QUAD CITIES    CLOUDY    56  53  90 E12       30.11F FOG
$$

IAZ062-063-075>077-085>089-095>099-061000-
   SOUTHEAST IOWA

CITY           SKY/WX    TMP DP  RH WIND       PRES   REMARKS
BURLINGTON     PTCLDY    65  63  93 E5        30.07F FOG
FAIRFIELD *    FOG       61  61 100 E6        30.06S VSB 3/4
FORT MADISON * CLEAR     66  63  88 SE5       30.08S
KEOKUK *       CLEAR     64  59  82 SE7       30.06F
OSKALOOSA *      N/A     63  61  94 SE10      30.05S FOG
CENTERVILLE *  CLEAR     61  59  94 SE7       30.04F
OTTUMWA        PTCLDY    63  62  97 SE9       30.04F FOG
WASHINGTON *   FOG       63 N/A N/A E10       30.07F VSB 1
$$

ABBREVIATIONS USED IN REMARKS
   TC - TEMPERATURES IN CELSIUS
  WCI - WIND CHILL INDEX
   HX - HEAT INDEX
  VSB - VISIBILITY
$$



USA.gov is the U.S. government's official web portal to all federal, state and local government web resources and services.